Regional Weather Roundup
Issued by NWS

Home | Current Version | Previous Version | Text Only | Print | Product List | Glossary Off
Versions: 1 2 3 4 5 6 7 8 9 10 11 12 13 14 15 16 17 18 19 20 21 22 23 24 25 26 27 28 29 30 31 32 33 34 35 36 37 38 39 40 41 42 43 44 45 46 47 48 49 50

000
ASUS43 KFSD 242102
RWRSD

WEATHER ROUNDUP FOR SOUTH DAKOTA
NATIONAL WEATHER SERVICE SIOUX FALLS SD
400 PM CDT THU JUL 24 2014

NOTE: "FAIR" INDICATES FEW OR NO CLOUDS BELOW 12,000 FEET WITH NO
SIGNIFICANT WEATHER AND/OR OBSTRUCTIONS TO VISIBILITY.


SDZ001>005-009-010-012>017-242200-
NORTHWEST AND NORTH CENTRAL SOUTH DAKOTA

CITY           SKY/WX    TMP DP  RH WIND       PRES   REMARKS
BUFFALO          N/A     88  68  51 SE9       29.70F
FAITH            N/A     90  66  45 SE13      29.73F
MOBRIDGE       MOSUNNY   85  68  56 SE21G30   29.74F
$$

SDZ012>016-024>037-041>051-057-063-072>074-242200-
SOUTHWEST AND SOUTH CENTRAL SOUTH DAKOTA

CITY           SKY/WX    TMP DP  RH WIND       PRES   REMARKS
RAPID CTY ARPT MOSUNNY   92  67  43 VRB5      29.77F HX  95
PIERRE         SUNNY     98  68  37 SE16G32   29.68F HX 103
CUSTER         MOSUNNY   91  40  16 W14G25    29.99S
ELLSWORTH AFB  MOSUNNY   91  64  40 E6        29.78F
PHILIP         SUNNY    102  62  26 VRB5      29.69F HX 104
PINE RIDGE     SUNNY     94  59  31 SW7       29.78F
WINNER         FAIR      99  67  35 S24G32    29.74F HX 103
$$

SDZ004>011-016>023-039-040-242200-
NORTHEAST SOUTH DAKOTA

CITY           SKY/WX    TMP DP  RH WIND       PRES   REMARKS
ABERDEEN       MOSUNNY   79  61  53 SE24G38   29.83F
WATERTOWN      PTSUNNY   70  62  76 SE21G32   29.90F
SISSETON         N/A     73  66  78 S17G31    29.86F
$$

SDZ017-020-022-023-036>040-048>070-242200-
SOUTHEAST SOUTH DAKOTA

CITY           SKY/WX    TMP DP  RH WIND       PRES   REMARKS
SIOUX FALLS    PTSUNNY   73  63  70 NE26G36   30.04R
HURON          CLOUDY    73  63  70 SE20G33   29.86F
CHAMBERLAIN    SUNNY     89  69  52 SE24G31   29.76F
MITCHELL       PTSUNNY   79  67  66 E18G29    29.88R
YANKTON        MOSUNNY   82  66  57 SE21G31   29.88S
$$

ABBREVIATIONS USED IN REMARKS
   TC - TEMPERATURE IN CELSIUS
  WCI - WIND CHILL INDEX
   HX - HEAT INDEX
  VSB - VISIBILITY



USA.gov is the U.S. government's official web portal to all federal, state and local government web resources and services.